Find STARLINK-37522

NORAD ID: 799500897 Int'l Des: 2026-127D Constellation: starlink operational

Aktuelle Ansicht

3D-Globus wird geladen...

Über STARLINK-37522

Beschreibung wird geladen...

Nächste Überflüge

Passes for default location (London). Set your location on the main map for personalized predictions.

Höhenverlauf

Loading altitude history...

Zweizeiliger Elementsatz

1 99999C 2026127D 26159.90118056 .00823170 00000-0 889890-4 0 1593
2 99999 53.1619 304.9550 0008866 292.2620 317.0074 16.08703860 11
Epoch: 8. Juni 2026 • Age: 3 hours

Aktueller Status

Höhe 262.5 km
Geschwindigkeit 7.75 km/s
Subsatellitenpunkt -49.52°S, 81.6°W
Startdatum 4. Juni 2026
Alter 4 days
Typ internet

Most Searched